Location: Garden of he Gods Recreation Area
(37.6010°N, 88.3780°W)
Time: 01:45:16
(UTC-06:00)

Hubble Space Telescope - Pass Details

Date: 29 October 2019
Orbit: 536 x 540 km, 28.5° (Epoch: 11 November)

Event Time Altitude Azimuth Distance (km) Brightness Sun altitude
Exits shadow 06:03:28 - 215° (SW) 2,084 3.5 -14.8°
Reaches altitude 10° 06:04:37 10° 204° (SSW) 1,776 3.2 -14.5°
Maximum altitude 06:07:09 16° 166° (SSE) 1,439 3.2 -14.0°
Drops below altitude 10° 06:09:41 10° 128° (SE) 1,777 4.4 -13.5°
Sets 06:12:39 0° 106° (ESE) 2,668 6.2 -13.0°
